{"data":{"norad_id":56290,"intl_designator":"2023-056E","name":"STARLINK-30103","alt_names":[],"object_type":"PAYLOAD","status":"ACTIVE","operator":null,"country":"US","launch_date":"2023-04-19","launch_site_code":"AFETR","launch_vehicle":null,"mission":null,"orbit_class":"UNKNOWN","rcs_meters":null,"size_class":null,"mass_kg":null,"dimensions":null,"purposes":["comms"],"wikipedia_slug":null,"has_3d_model":false,"image_url":null,"decayed_at":null,"tle_current":{"epoch":"2026-09-20T04:11:50.273952Z","epoch_age_seconds":136700,"freshness":"FRESH","line1":"1 56290U 23056E   26263.17488743  .00002787  00000+0  11071-3 0  9995","line2":"2 56290  42.9983 190.5997 0000446 165.7046 194.3819 15.27587841189788","mean_motion":15.27587841,"eccentricity":4.46e-5,"inclination_deg":42.9983,"raan_deg":190.5997,"arg_perigee_deg":165.7046,"mean_anomaly_deg":194.3819,"bstar":0.00011071,"rev_number":18978,"period_min":94.266264849119,"perigee_km":482.71960951256,"apogee_km":483.33162521803,"semimajor_km":6861.1626173653,"source":"CELESTRAK","updated_at":"2026-09-21T09:00:33.391973Z"}}}